STARLINK-11208 [DTC] (60311 NORAD) Tracking and Keplerian Element Data

This shows tracking and keplerian element data for the satellite.

Feedback or suggestion? Click here.




ElementValue
Catalog60311
NameSTARLINK-11208 [DTC]
Epoch Orbit600
Epoch Day286.91668981
Epoch Year2024
RAAN153.6366
Inclination53.1523
Eccentricity4.23E-05
Argument of Perigee78.7668
Mean Anonmoly228.1254
Mean Motion15.68492352
Decay Rate-0.00033746
L11 60311U 24133L 24286.91668981 -.00033746 00000+0 -28909-3 0 9999
L22 60311 53.1523 153.6366 0000423 78.7668 228.1254 15.68492352 6008



Live tracking and technical data element details for STARLINK-11208 [DTC] (NORAD 60311). STARLINK-11208 [DTC] can be tracked NOW for your location showing map with azimuth and elevation plus other details from your city location.







IsCatalogInMostPopularTable: catalog: 60311, numindb: 8
Update: records affected: 1



GetName: 60311 STARLINK-11208 [DTC]

Hit Count: updated at: Tue, 03 Dec 2024 02:38:09 GMT